TimeMST,TemperatureF,Dew PointF,Humidity,Sea Level PressureIn,VisibilityMPH,Wind Direction,Wind SpeedMPH,Gust SpeedMPH,PrecipitationIn,Events,Conditions,WindDirDegrees,DateUTC
12:15 AM,-0.4,-2.2,92,30.45,10.0,Calm,Calm,-,N/A,,Clear,0,2013-01-18 07:15:00
12:35 AM,-0.4,-4.0,85,30.45,4.0,Calm,Calm,-,N/A,,Clear,0,2013-01-18 07:35:00
12:55 AM,-0.4,-4.0,85,30.46,0.2,Calm,Calm,-,N/A,Fog,Light Freezing Fog,0,2013-01-18 07:55:00
1:15 AM,-4.0,-7.6,85,30.46,1.0,Calm,Calm,-,N/A,,Mostly Cloudy,0,2013-01-18 08:15:00
1:35 AM,-5.8,-7.6,92,30.46,7.0,Calm,Calm,-,N/A,,Clear,0,2013-01-18 08:35:00
1:55 AM,-7.6,-11.2,84,30.46,10.0,Calm,Calm,-,N/A,,Clear,0,2013-01-18 08:55:00
2:15 AM,-5.8,-9.4,84,30.45,10.0,Calm,Calm,-,N/A,,Clear,0,2013-01-18 09:15:00
2:35 AM,-5.8,-9.4,84,30.45,10.0,Calm,Calm,-,N/A,,Clear,0,2013-01-18 09:35:00
2:55 AM,-5.8,-11.2,77,30.45,10.0,Calm,Calm,-,N/A,,Clear,0,2013-01-18 09:55:00
3:15 AM,-7.6,-13.0,77,30.44,10.0,Calm,Calm,-,N/A,,Clear,0,2013-01-18 10:15:00
3:35 AM,-7.6,-11.2,84,30.44,10.0,Calm,Calm,-,N/A,,Mostly Cloudy,0,2013-01-18 10:35:00
3:55 AM,-5.8,-9.4,84,30.43,1.0,Calm,Calm,-,N/A,,Overcast,0,2013-01-18 10:55:00
4:15 AM,-7.6,-13.0,77,30.43,0.2,Calm,Calm,-,N/A,,Haze,0,2013-01-18 11:15:00
4:35 AM,-7.6,-13.0,77,30.43,0.8,Calm,Calm,-,N/A,,Overcast,0,2013-01-18 11:35:00
4:55 AM,-7.6,-13.0,77,30.43,7.0,Calm,Calm,-,N/A,,Overcast,0,2013-01-18 11:55:00
5:15 AM,-5.8,-9.4,84,30.43,5.0,Calm,Calm,-,N/A,,Overcast,0,2013-01-18 12:15:00
5:35 AM,-5.8,-9.4,84,30.43,0.8,Calm,Calm,-,N/A,,Overcast,0,2013-01-18 12:35:00
5:55 AM,-4.0,-7.6,85,30.43,0.2,Calm,Calm,-,N/A,Fog,Light Freezing Fog,0,2013-01-18 12:55:00
6:15 AM,-4.0,-7.6,85,30.43,0.2,Calm,Calm,-,N/A,Fog,Light Freezing Fog,0,2013-01-18 13:15:00
6:35 AM,-4.0,-7.6,85,30.43,0.2,Calm,Calm,-,N/A,Fog,Light Freezing Fog,0,2013-01-18 13:35:00
6:55 AM,-5.8,-9.4,84,30.43,0.2,Calm,Calm,-,N/A,Fog,Light Freezing Fog,0,2013-01-18 13:55:00
7:15 AM,-5.8,-9.4,84,30.43,1.5,Calm,Calm,-,N/A,,Haze,0,2013-01-18 14:15:00
7:35 AM,-7.6,-13.0,77,30.43,10.0,Calm,Calm,-,N/A,,Mostly Cloudy,0,2013-01-18 14:35:00
7:55 AM,-7.6,-11.2,84,30.44,0.2,Calm,Calm,-,N/A,Fog,Light Freezing Fog,0,2013-01-18 14:55:00
8:15 AM,-5.8,-9.4,84,30.44,0.2,Calm,Calm,-,N/A,Fog,Light Freezing Fog,0,2013-01-18 15:15:00
8:35 AM,-5.8,-9.4,84,30.44,0.2,Calm,Calm,-,N/A,Fog,Light Freezing Fog,0,2013-01-18 15:35:00
8:55 AM,-4.0,-7.6,85,30.45,0.2,Calm,Calm,-,N/A,Fog,Light Freezing Fog,0,2013-01-18 15:55:00
9:15 AM,3.2,-0.4,85,30.45,3.0,Calm,Calm,-,N/A,,Clear,0,2013-01-18 16:15:00
9:35 AM,3.2,-0.4,85,30.46,0.2,Calm,Calm,-,N/A,Fog,Light Freezing Fog,0,2013-01-18 16:35:00
9:55 AM,5.0,3.2,92,30.47,0.8,Calm,Calm,-,N/A,,Overcast,0,2013-01-18 16:55:00
10:15 AM,8.6,5.0,85,30.47,2.0,Calm,Calm,-,N/A,,Scattered Clouds,0,2013-01-18 17:15:00
10:35 AM,12.2,10.4,92,30.47,4.0,Calm,Calm,-,N/A,,Clear,0,2013-01-18 17:35:00
10:55 AM,12.2,10.4,92,30.46,4.0,Calm,Calm,-,N/A,,Clear,0,2013-01-18 17:55:00
11:15 AM,12.2,8.6,85,30.46,7.0,Calm,Calm,-,N/A,,Clear,0,2013-01-18 18:15:00
11:35 AM,15.8,12.2,86,30.45,4.0,Calm,Calm,-,N/A,Snow,Light Snow,0,2013-01-18 18:35:00
11:55 AM,19.4,12.2,74,30.43,7.0,Calm,Calm,-,N/A,,Clear,0,2013-01-18 18:55:00
12:15 PM,21.2,14.0,74,30.41,10.0,Calm,Calm,-,N/A,,Clear,0,2013-01-18 19:15:00
12:35 PM,24.8,14.0,64,30.40,10.0,Calm,Calm,-,N/A,,Clear,0,2013-01-18 19:35:00
12:55 PM,23.0,12.2,63,30.39,10.0,Calm,Calm,-,N/A,,Clear,0,2013-01-18 19:55:00
1:15 PM,21.2,12.2,68,30.38,10.0,Calm,Calm,-,N/A,,Clear,0,2013-01-18 20:15:00
1:35 PM,21.2,12.2,68,30.37,10.0,Calm,Calm,-,N/A,,Clear,0,2013-01-18 20:35:00
1:55 PM,23.0,12.2,63,30.37,10.0,Calm,Calm,-,N/A,,Clear,0,2013-01-18 20:55:00
2:15 PM,23.0,12.2,63,30.36,10.0,Calm,Calm,-,N/A,,Clear,0,2013-01-18 21:15:00
2:35 PM,21.2,12.2,68,30.36,10.0,Calm,Calm,-,N/A,,Clear,0,2013-01-18 21:35:00
2:55 PM,21.2,12.2,68,30.36,10.0,Calm,Calm,-,N/A,,Clear,0,2013-01-18 21:55:00
3:15 PM,23.0,12.2,63,30.36,10.0,Calm,Calm,-,N/A,,Clear,0,2013-01-18 22:15:00
3:35 PM,23.0,12.2,63,30.36,10.0,Calm,Calm,-,N/A,,Clear,0,2013-01-18 22:35:00
3:55 PM,23.0,12.2,63,30.36,10.0,Calm,Calm,-,N/A,,Clear,0,2013-01-18 22:55:00
4:15 PM,23.0,12.2,63,30.36,10.0,Calm,Calm,-,N/A,,Clear,0,2013-01-18 23:15:00
4:35 PM,21.2,12.2,68,30.36,10.0,Calm,Calm,-,N/A,,Clear,0,2013-01-18 23:35:00
4:55 PM,17.6,8.6,68,30.36,10.0,Calm,Calm,-,N/A,,Clear,0,2013-01-18 23:55:00
5:15 PM,14.0,8.6,79,30.37,10.0,Calm,Calm,-,N/A,,Clear,0,2013-01-19 00:15:00
5:35 PM,10.4,6.8,85,30.37,10.0,Calm,Calm,-,N/A,,Clear,0,2013-01-19 00:35:00
5:55 PM,5.0,1.4,85,30.37,10.0,Calm,Calm,-,N/A,,Clear,0,2013-01-19 00:55:00
6:15 PM,5.0,1.4,85,30.37,10.0,Calm,Calm,-,N/A,,Clear,0,2013-01-19 01:15:00
6:35 PM,8.6,5.0,85,30.38,10.0,Calm,Calm,-,N/A,,Clear,0,2013-01-19 01:35:00
6:55 PM,5.0,3.2,92,30.38,10.0,Calm,Calm,-,N/A,,Clear,0,2013-01-19 01:55:00
7:15 PM,5.0,1.4,85,30.38,10.0,ESE,3.5,-,N/A,,Clear,110,2013-01-19 02:15:00
7:35 PM,5.0,3.2,92,30.39,10.0,Calm,Calm,-,N/A,,Clear,0,2013-01-19 02:35:00
7:55 PM,5.0,3.2,92,30.39,10.0,Calm,Calm,-,N/A,,Clear,0,2013-01-19 02:55:00
8:35 PM,3.2,1.4,92,30.39,7.0,Calm,Calm,-,N/A,,Clear,0,2013-01-19 03:35:00
8:55 PM,1.4,-2.2,85,30.40,7.0,Calm,Calm,-,N/A,,Clear,0,2013-01-19 03:55:00
9:15 PM,1.4,-2.2,85,30.40,7.0,Calm,Calm,-,N/A,,Clear,0,2013-01-19 04:15:00
9:35 PM,1.4,-4.0,78,30.40,7.0,Calm,Calm,-,N/A,,Clear,0,2013-01-19 04:35:00
9:55 PM,1.4,-0.4,92,30.40,7.0,Calm,Calm,-,N/A,,Clear,0,2013-01-19 04:55:00
10:15 PM,3.2,-0.4,85,30.40,5.0,SE,3.5,-,N/A,,Clear,130,2013-01-19 05:15:00
10:35 PM,3.2,-0.4,85,30.40,5.0,ESE,4.6,-,N/A,,Clear,120,2013-01-19 05:35:00
10:55 PM,1.4,-0.4,92,30.40,5.0,Calm,Calm,-,N/A,,Clear,0,2013-01-19 05:55:00
11:15 PM,1.4,-0.4,92,30.41,4.0,Calm,Calm,-,N/A,,Clear,0,2013-01-19 06:15:00
11:35 PM,3.2,-0.4,85,30.40,3.0,Calm,Calm,-,N/A,,Clear,0,2013-01-19 06:35:00
11:55 PM,1.4,-0.4,92,30.40,4.0,Calm,Calm,-,N/A,,Clear,0,2013-01-19 06:55:00